Comanche, TX

6:54 PM CDT on August 31, 2016 (GMT -0500)
Comanche

Weather History for KMKN - May, 2013

Change the Weather History Date:

Friday, May 17, 2013

  Actual Average (KSEP) Record (KSEP)
Temperature  
Mean Temperature 83 °F -  
Max Temperature 95 °F 84 °F 91 °F (1948)
Min Temperature 71 °F 61 °F 51 °F (2006)
Cooling Degree Days 18    
Growing Degree Days 33 (Base 50)    
Moisture  
Dew Point 70 °F    
Average Humidity 71    
Maximum Humidity 96    
Minimum Humidity 28    
Precipitation  
Precipitation 0.00 in - - ()
Sea Level Pressure  
Sea Level Pressure 29.81 in    
Wind  
Wind Speed 9 mph (SSE)    
Max Wind Speed 24 mph    
Max Gust Speed 56 mph    
Visibility 8 miles    
Events Rain , Thunderstorm    
Averages and records for this station are not official NWS values.
T = Trace of Precipitation, MM = Missing Value Source: NWS Daily Summary

Daily Weather History Graph

Daily Weather History Graph

Search for Another Location

Airport or City:

Trip Planner

Search our weather history database for the weather conditions in past years. The results will help you decide how hot, cold, wet, or windy it might be!

Date:

Astronomy

May. 17, 2013 Rise Set
Actual Time 6:35 AM CDT 8:26 PM CDT
Civil Twilight 6:08 AM CDT 8:53 PM CDT
Nautical Twilight 5:36 AM CDT 9:25 PM CDT
Astronomical Twilight 5:01 AM CDT 10:00 PM CDT
Moon 12:59 PM CDT (5/17) 1:28 AM CDT (5/17)
Length of Visible Light 14h 44m
Length of Day
13h 50m
Waxing Crescent, 45% of the Moon is Illuminated
May 17
Waxing Crescent
May 17
First Quarter
May 24
Full
May 31
Last Quarter
Jun 8
New

Hourly Weather History & Observations

Time (CDT) Temp. Heat Index Dew Point Humidity Pressure Visibility Wind Dir Wind Speed Gust Speed Precip Events Conditions
12:15 AM 73.0 °F - 70.3 °F 91% 29.79 in 7.0 mi SE 6.9 mph - N/A   Clear
12:35 AM 72.9 °F - 70.5 °F 92% 29.79 in 7.0 mi SE 6.9 mph - N/A   Clear
12:55 AM 72.5 °F - 70.5 °F 93% 29.79 in 7.0 mi SSE 5.8 mph - N/A   Clear
1:15 AM 72.5 °F - 70.5 °F 93% 29.79 in 7.0 mi SSE 6.9 mph - N/A   Clear
1:35 AM 72.5 °F - 70.3 °F 93% 29.79 in 7.0 mi SSE 6.9 mph - N/A   Clear
1:55 AM 72.7 °F - 70.7 °F 93% 29.79 in 7.0 mi SSE 10.4 mph - N/A   Clear
2:15 AM 72.9 °F - 70.7 °F 93% 29.79 in 7.0 mi SSE 8.1 mph - N/A   Clear
2:35 AM 72.9 °F - 70.7 °F 93% 29.78 in 7.0 mi SSE 8.1 mph - N/A   Scattered Clouds
2:55 AM 72.7 °F - 70.7 °F 93% 29.78 in 7.0 mi SSE 8.1 mph - N/A   Scattered Clouds
3:15 AM 72.5 °F - 70.7 °F 94% 29.78 in 5.0 mi SSE 5.8 mph - N/A   Scattered Clouds
3:35 AM 72.0 °F - 70.3 °F 95% 29.78 in 5.0 mi SSE 5.8 mph - N/A   Scattered Clouds
3:55 AM 71.8 °F - 70.3 °F 95% 29.78 in 5.0 mi SSE 6.9 mph - N/A   Scattered Clouds
4:15 AM 71.8 °F - 70.3 °F 95% 29.78 in 4.0 mi South 5.8 mph - N/A   Scattered Clouds
4:35 AM 72.0 °F - 70.3 °F 95% 29.79 in 5.0 mi SSE 5.8 mph - N/A   Scattered Clouds
4:55 AM 72.0 °F - 70.5 °F 95% 29.79 in 4.0 mi South 6.9 mph - N/A   Mostly Cloudy
5:15 AM 72.0 °F - 70.7 °F 96% 29.79 in 4.0 mi South 5.8 mph - N/A   Mostly Cloudy
5:35 AM 72.0 °F - 70.3 °F 95% 29.80 in 4.0 mi SSE 5.8 mph - N/A   Overcast
5:55 AM 72.3 °F - 70.7 °F 95% 29.80 in 4.0 mi SSE 6.9 mph - N/A   Overcast
6:15 AM 72.7 °F - 70.9 °F 94% 29.81 in 5.0 mi South 8.1 mph - N/A   Overcast
6:35 AM 72.9 °F - 70.9 °F 93% 29.81 in 3.0 mi South 9.2 mph - N/A   Overcast
6:55 AM 73.0 °F - 70.9 °F 93% 29.82 in 4.0 mi South 6.9 mph - N/A   Overcast
7:15 AM 73.4 °F - 70.9 °F 92% 29.82 in 4.0 mi South 9.2 mph - N/A   Overcast
7:35 AM 73.4 °F - 70.9 °F 92% 29.83 in 4.0 mi SSE 9.2 mph - N/A   Overcast
7:55 AM 73.8 °F - 71.2 °F 92% 29.83 in 4.0 mi South 9.2 mph - N/A   Overcast
8:15 AM 74.1 °F - 71.1 °F 90% 29.84 in 4.0 mi South 9.2 mph - N/A   Overcast
8:35 AM 75.0 °F - 71.6 °F 89% 29.84 in 4.0 mi South 9.2 mph - N/A   Overcast
8:55 AM 75.7 °F - 71.2 °F 86% 29.85 in 5.0 mi South 12.7 mph - N/A   Haze
9:15 AM 77.4 °F - 71.6 °F 82% 29.85 in 5.0 mi South 10.4 mph 16.1 mph N/A   Haze
9:35 AM 78.3 °F - 71.6 °F 80% 29.85 in 7.0 mi South 12.7 mph 19.6 mph N/A   Mostly Cloudy
9:55 AM 79.0 °F - 71.6 °F 78% 29.85 in 7.0 mi South 11.5 mph 19.6 mph N/A   Mostly Cloudy
10:15 AM 80.4 °F 84.2 °F 71.4 °F 74% 29.84 in 7.0 mi South 12.7 mph 18.4 mph N/A   Scattered Clouds
10:35 AM 81.7 °F 85.8 °F 71.2 °F 70% 29.84 in 7.0 mi SSW 13.8 mph 19.6 mph N/A   Clear
10:55 AM 83.5 °F 88.5 °F 71.4 °F 67% 29.84 in 10.0 mi South 9.2 mph - N/A   Clear
11:15 AM 84.4 °F 89.4 °F 71.1 °F 64% 29.85 in 10.0 mi South 10.4 mph - N/A   Clear
11:35 AM 86.0 °F 91.5 °F 71.1 °F 61% 29.85 in 10.0 mi South 9.2 mph - N/A   Clear
11:55 AM 87.3 °F 92.8 °F 70.9 °F 58% 29.85 in 10.0 mi SSE 8.1 mph - N/A   Clear
12:15 PM 87.6 °F 92.3 °F 69.6 °F 55% 29.85 in 10.0 mi South 12.7 mph - N/A   Clear
12:35 PM 88.2 °F 93.3 °F 70.2 °F 55% 29.85 in 10.0 mi South 9.2 mph 17.3 mph N/A   Clear
12:55 PM 89.1 °F 94.1 °F 70.0 °F 53% 29.84 in 10.0 mi South 13.8 mph 19.6 mph N/A   Clear
1:15 PM 89.6 °F 94.7 °F 70.0 °F 52% 29.84 in 10.0 mi SSE 11.5 mph 18.4 mph N/A   Clear
1:35 PM 90.0 °F 95.4 °F 70.0 °F 52% 29.84 in 10.0 mi South 12.7 mph 18.4 mph N/A   Clear
1:55 PM 91.2 °F 97.0 °F 70.2 °F 50% 29.83 in 10.0 mi South 15.0 mph 20.7 mph N/A   Clear
2:15 PM 90.9 °F 96.2 °F 70.2 °F 50% 29.83 in 10.0 mi SSE 15.0 mph 19.6 mph N/A   Clear
2:35 PM 91.9 °F 97.9 °F 70.5 °F 49% 29.82 in 10.0 mi South 13.8 mph 20.7 mph N/A   Clear
2:55 PM 92.5 °F 98.4 °F 70.0 °F 48% 29.82 in 10.0 mi South 11.5 mph 19.6 mph N/A   Clear
3:15 PM 93.4 °F 99.7 °F 70.2 °F 47% 29.81 in 10.0 mi South 9.2 mph 18.4 mph N/A   Clear
3:35 PM 93.4 °F 99.2 °F 69.6 °F 46% 29.81 in 10.0 mi South 11.5 mph 19.6 mph N/A   Clear
4:15 PM 94.6 °F 100.5 °F 69.6 °F 44% 29.79 in 10.0 mi SSE 13.8 mph 18.4 mph N/A   Clear
4:35 PM 95.0 °F 100.7 °F 69.6 °F 43% 29.79 in 10.0 mi South 10.4 mph 16.1 mph N/A   Clear
4:55 PM 94.3 °F 98.7 °F 68.0 °F 42% 29.78 in 10.0 mi South 15.0 mph 21.9 mph N/A   Clear
5:15 PM 94.1 °F 98.9 °F 68.5 °F 43% 29.77 in 10.0 mi SSE 16.1 mph 21.9 mph N/A   Clear
5:35 PM 94.5 °F 99.1 °F 68.4 °F 42% 29.77 in 10.0 mi South 16.1 mph 20.7 mph N/A   Clear
5:55 PM 93.9 °F 98.0 °F 67.5 °F 42% 29.77 in 10.0 mi SSE 17.3 mph 23.0 mph N/A   Clear
6:15 PM 93.0 °F 96.9 °F 67.3 °F 43% 29.77 in 10.0 mi SSE 12.7 mph 26.5 mph N/A   Clear
6:35 PM 91.6 °F 95.7 °F 68.4 °F 46% 29.76 in 10.0 mi SSE 17.3 mph 24.2 mph N/A   Clear
6:55 PM 90.5 °F 95.1 °F 68.7 °F 49% 29.77 in 10.0 mi SSE 13.8 mph 23.0 mph N/A   Clear
7:35 PM 87.8 °F 93.0 °F 70.2 °F 56% 29.77 in 10.0 mi SE 12.7 mph 19.6 mph N/A   Clear
7:55 PM 86.2 °F 91.4 °F 70.9 °F 60% 29.78 in 10.0 mi SE 11.5 mph 16.1 mph N/A Thunderstorm Clear
8:15 PM 84.2 °F 89.3 °F 71.4 °F 65% 29.80 in 10.0 mi ESE 5.8 mph - N/A Thunderstorm Clear
8:35 PM 82.6 °F 87.3 °F 71.6 °F 69% 29.82 in 10.0 mi East 6.9 mph - N/A   Clear
8:55 PM 81.9 °F 86.2 °F 71.2 °F 70% 29.82 in 10.0 mi ESE 9.2 mph - N/A   Clear
9:15 PM 81.5 °F 85.5 °F 71.1 °F 70% 29.82 in 10.0 mi SE 8.1 mph - N/A   Clear
9:35 PM 80.6 °F 84.2 °F 70.9 °F 72% 29.83 in 10.0 mi SE 10.4 mph - N/A   Clear
9:55 PM 80.2 °F 83.7 °F 70.7 °F 73% 29.84 in 10.0 mi SSE 6.9 mph - N/A   Clear
10:15 PM 79.7 °F - 71.1 °F 75% 29.83 in 10.0 mi SE 13.8 mph - N/A   Clear
10:35 PM 82.6 °F 84.3 °F 64.9 °F 55% 29.84 in 10.0 mi South 8.1 mph 17.3 mph N/A   Clear
10:55 PM 83.7 °F - 47.1 °F 28% 29.84 in 7.0 mi South 21.9 mph 56.4 mph N/A Rain Rain
11:15 PM 84.4 °F 86.6 °F 66.2 °F 54% 29.87 in 10.0 mi SSE 12.7 mph 17.3 mph N/A Thunderstorm Overcast
11:35 PM 82.8 °F 85.5 °F 67.8 °F 60% 29.85 in 10.0 mi South 18.4 mph 24.2 mph N/A Rain Light Rain
11:55 PM 81.1 °F 84.4 °F 69.3 °F 67% 29.86 in 10.0 mi SSW 24.2 mph 28.8 mph N/A Rain Light Rain